Вернуться в каталог

YAOGAN 4 DEB

АктивенВоенныеPO
NORAD 35575·DEBRIS·🇨🇳 China

Запущен Dec 1, 2008 с Jiuquan Satellite Launch Center

Loading…

Ближайшие Пролёты (ближайшие 24 часа)

TLE

СвежийSource: Space-Track

Эпоха: Sep 13, 2026, 08:01 UTC

1 35575U 08061B   26256.33433370  .00001126  00000-0  32686-3 0  9995
2 35575  97.7667  31.9030 0206851 274.6149  83.1440 14.34471792920137

Отслеживайте YAOGAN 4 DEB в реальном времени с AllMySat

Download on the App Store